[[{"header":{"parameterUnit":"m.s-1","parameterCategory":1,"la1":30.2991,"la2":30.254,"lo1":-89.0895,"lo2":-89.0444,"dy":0.0017,"dx":0.0017,"nx":28,"ny":28,"refTime":"2024-07-13T09:00:00:Z","depth":0,"parameterNumber":2,"parameterNumberName":"U-component_of_WINDS"},"data":[0,0,0,0,0,0,0,0,0,0,0,0,0,0,0,0,0,0,0,0,0,0,0,0,0,0,0,0,0,0,0,0,0,0,0,0,0,0,0,0,0,0,0,0,0,0,0,0,0,0,0,0,0,0,0,0,0,0,1.0001,1.0001,0,0.9985,0.9984,0.9984,0.9876,0.9873,0.9871,0.9868,0.9859,0.9861,0.9863,0,0,0,0,0,0,0,0,0,0,0,0,0,0.9943,0.9945,1.0001,1.0001,1.0,0.9985,0.9984,0.9984,0.9877,0.9873,0.987,0.9867,0.9858,0.986,0.9863,0,0,0,0,0,0,0,0,0,0,0,0,0,0.9952,0.9945,1.0001,0.9945,0.9939,0.9985,0.9984,0.9984,0.9877,0.9873,0.9869,0.9866,0.9857,0.986,0.9863,0.9964,0,0,0.9874,0.9875,0,0,0,0,0,0,0,0,0.9952,0.9954,0.9953,0.9949,0.9943,0.9928,0.996,0.9978,0.9878,0.9901,0.9868,0.9864,0.9885,0.9886,0.9892,0.9963,0.9963,0.9874,0.9876,0.9877,0.9878,0,0,0,0,0,0,0,0.9951,0.9954,0.9995,0.9953,0.9947,0.9922,0.9919,0.9963,0.9916,0.9899,0.9891,0.989,0.9882,0.9889,0.9891,0.9963,0.9874,0.9877,0.9879,0.988,1.0113,1.0117,0,0,0,0,0,0,0.9957,0.9954,0.9995,0.9994,0.9937,0.9926,0.9922,0.9937,0.9915,0.9908,0.9893,0.9885,0.9885,0.9887,0.989,1.0005,0.9877,0.988,0.9882,1.0109,1.0114,1.0119,0,0,0,0,0,0,0.9957,0.9962,0.9996,0.9972,0.9974,0.9931,0.9948,0.9939,0.9946,0.9911,0.9903,0.9909,0.9882,0.9886,0.9945,1.0003,0.9882,0.9885,1.0104,1.0111,1.0117,1.0237,0,0,0,0,0,0,0.9955,0.9962,0.9999,0.9974,0.9976,1.005,0.9952,0.9941,0.9951,0.994,0.9924,0.9917,0.9879,0.9941,0.9949,1.0006,0.9887,1.0099,1.0107,1.0115,1.0227,1.0246,1.0263,0,0,0,0,0,0.9954,1.0036,1.0002,1.0007,1.0021,1.0054,1.0055,1.0008,0.9956,0.9993,0.997,0.9918,0.9995,0.9948,0.9956,1.0015,1.0095,1.0105,1.0114,1.022,1.0243,1.0262,0,0,0,0,0,0,1.0072,1.0031,0.9993,1.0069,1.0065,1.0035,1.0081,1.0034,1.0047,1.0037,0.998,0.9977,1.0045,1.0036,0.9984,1.011,1.0036,1.0048,1.0114,1.0135,1.0153,1.0154,0.989,0,0,0,0,0,1.0106,1.0135,1.0098,1.0169,1.0168,1.0125,1.0138,1.0101,1.0096,1.0095,1.0077,1.0076,1.0099,1.0117,1.0137,1.0225,1.022,1.0269,1.0287,1.0301,1.0313,1.0358,1.0379,1.015,1.015,1.015,0,0,1.0179,1.016,1.0182,1.0192,1.0185,1.0217,1.0125,1.0163,1.0186,1.0102,1.0156,1.0143,1.0137,1.0211,1.0243,1.0206,1.0374,1.0313,1.0325,1.0328,1.037,1.0391,1.0411,1.0156,1.0155,1.0154,0,0,1.0327,1.0316,1.0372,1.0366,1.0355,1.0325,1.0339,1.0315,1.0302,1.0355,1.0292,1.032,1.0362,1.0361,1.0366,1.0511,1.0463,1.0519,1.0611,1.0656,1.0674,1.069,1.0742,1.0761,1.053,1.053,1.053,0,1.0419,1.0463,1.0408,1.0449,1.0455,1.0376,1.0434,1.0431,1.0429,1.0436,1.0393,1.0443,1.0434,1.0506,1.0541,1.0548,1.0562,1.0521,1.0675,1.0691,1.0705,1.0753,1.0773,1.0537,1.0536,1.0535,1.0535,0,1.0576,1.0608,1.0655,1.0651,1.0663,1.0712,1.0665,1.0684,1.0646,1.0621,1.0676,1.0662,1.0677,1.0692,1.0657,1.0759,1.0735,1.0685,1.061,1.0734,1.0779,1.0797,1.0547,1.0544,1.0542,1.0541,0,0,1.0801,1.0763,1.0782,1.0779,1.076,1.0784,1.083,1.0842,1.0859,1.0859,1.0897,1.0933,1.0886,1.0891,1.0855,1.0894,1.1009,1.0838,1.0837,1.0871,1.1121,1.116,1.1182,1.0976,1.098,1.0982,1.1121,0,1.0943,1.1017,1.0967,1.105,1.1078,1.1003,1.1042,1.1036,1.1014,1.1035,1.1011,1.1038,1.0973,1.0976,1.1011,1.0988,1.1059,1.0977,1.1012,1.1014,1.1017,1.1205,1.1247,1.1379,1.1139,1.1142,1.1144,0,1.1119,1.1124,1.1209,1.1182,1.1192,1.1229,1.1235,1.1256,1.1248,1.1228,1.1234,1.1187,1.1231,1.1156,1.1216,1.1161,1.1173,1.1164,1.1167,1.117,1.1087,1.1214,1.142,1.144,1.1171,1.1169,1.1167,0,1.1274,1.1302,1.1356,1.1356,1.1326,1.1354,1.1343,1.133,1.134,1.1346,1.1352,1.1365,1.1372,1.1383,1.1341,1.129,1.1407,1.1329,1.1394,1.1395,1.1423,1.1422,1.1635,1.1429,1.1429,1.1429,1.1428,0,1.1438,1.1493,1.1425,1.1459,1.1518,1.146,1.1521,1.1503,1.1491,1.1521,1.1457,1.1487,1.1429,1.1453,1.142,1.1475,1.1479,1.1466,1.1457,1.1472,1.1474,1.1479,1.1469,1.1434,1.1433,1.1432,1.1431,0,1.1622,1.1579,1.1632,1.1599,1.1592,1.1637,1.1609,1.1639,1.1611,1.1649,1.1655,1.1612,1.1637,1.1595,1.1616,1.1594,1.167,1.1647,1.1673,1.1666,1.1734,1.1728,1.1958,1.1985,1.1762,1.1765,1.1766,0,1.173,1.177,1.174,1.1754,1.1746,1.177,1.1778,1.1723,1.1736,1.1727,1.1759,1.1777,1.1789,1.1832,1.1804,1.1819,1.1796,1.1875,1.1798,1.1812,1.1797,1.1796,1.18,1.1892,1.1895,1.1897,1.1898,0,1.1927,1.1902,1.1916,1.1923,1.1934,1.1937,1.1936,1.1951,1.1893,1.191,1.1933,1.1942,1.1961,1.1981,1.1988,1.1979,1.193,1.1922,1.1938,1.1955,1.1968,1.1962,1.1717,1.1918,1.1916,1.1915,1.1914,1.1913,1.2076,1.2107,1.209,1.2108,1.21,1.21,1.2126,1.21,1.2117,1.2126,1.2093,1.2124,1.2113,1.2117,1.2113,1.2137,1.2102,1.2126,1.2132,1.2138,1.2149,1.1964,1.2139,1.2138,1.2137,1.2137,1.2136,0,1.2269,1.2253,1.227,1.2268,1.2282,1.2231,1.2226,1.2242,1.2269,1.2262,1.2274,1.23,1.2318,1.229,1.2304,1.2328,1.2306,1.2334,1.2332,1.2331,1.2179,1.2164,1.2351,1.2351,1.2351,1.2351,1.2351,1.2351,1.2371,1.2421,1.2395,1.244,1.2425,1.2452,1.2454,1.2453,1.2447,1.2478,1.2492,1.2472,1.2457,1.2469,1.2483,1.2475,1.2483,1.2519,1.2503,1.2363,1.2342,1.2322,1.2307,1.2521,1.2521,1.2652,1.2653,1.2654]},{"header":{"parameterUnit":"m.s-1","parameterCategory":1,"la1":30.2991,"la2":30.254,"lo1":-89.0895,"lo2":-89.0444,"dy":0.0017,"dx":0.0017,"nx":28,"ny":28,"refTime":"2024-07-13T09:00:00:Z","depth":0,"parameterNumber":3,"parameterNumberName":"V-component_of_WINDS"},"data":[0,0,0,0,0,0,0,0,0,0,0,0,0,0,0,0,0,0,0,0,0,0,0,0,0,0,0,0,0,0,0,0,0,0,0,0,0,0,0,0,0,0,0,0,0,0,0,0,0,0,0,0,0,0,0,0,0,0,1.8432,1.8432,0,1.8379,1.8378,1.8377,1.8282,1.8281,1.8279,1.8277,1.8224,1.8225,1.8225,0,0,0,0,0,0,0,0,0,0,0,0,0,1.8454,1.8454,1.8432,1.8432,1.8431,1.8379,1.8378,1.8377,1.8283,1.8281,1.8278,1.8276,1.8224,1.8225,1.8225,0,0,0,0,0,0,0,0,0,0,0,0,0,1.8427,1.8454,1.8432,1.8377,1.8372,1.8379,1.8378,1.8377,1.8283,1.828,1.8278,1.8275,1.8224,1.8225,1.8225,1.8282,0,0,1.8226,1.8226,0,0,0,0,0,0,0,0,1.8429,1.8426,1.8386,1.8381,1.8375,1.8334,1.8366,1.8345,1.8284,1.8317,1.8277,1.8274,1.8263,1.826,1.8256,1.8279,1.8277,1.8226,1.8226,1.8227,1.8227,0,0,0,0,0,0,0,1.8431,1.8428,1.8411,1.8386,1.8379,1.8356,1.8349,1.8362,1.8306,1.8314,1.8307,1.8302,1.826,1.8256,1.8254,1.8276,1.8226,1.8227,1.8227,1.8227,1.8342,1.8345,0,0,0,0,0,0,1.844,1.843,1.8413,1.8409,1.8396,1.8358,1.835,1.835,1.8306,1.8296,1.8304,1.8297,1.8257,1.8254,1.8252,1.8315,1.8227,1.8227,1.8227,1.8339,1.8343,1.8346,0,0,0,0,0,0,1.8441,1.844,1.8415,1.8418,1.8413,1.836,1.8361,1.8351,1.8347,1.8298,1.8288,1.8311,1.8254,1.8252,1.8275,1.8312,1.8227,1.8228,1.8336,1.834,1.8344,1.8442,0,0,0,0,0,0,1.8442,1.844,1.8461,1.8419,1.8413,1.8438,1.8363,1.8352,1.8348,1.8338,1.8302,1.8293,1.8252,1.8275,1.8275,1.8311,1.8228,1.8333,1.8338,1.8343,1.8435,1.8449,1.8461,0,0,0,0,0,1.8443,1.8492,1.8463,1.8461,1.8438,1.8441,1.8437,1.8389,1.8351,1.8372,1.834,1.8294,1.8308,1.8278,1.8278,1.8314,1.833,1.8337,1.8343,1.8429,1.8446,1.846,0,0,0,0,0,0,1.854,1.8485,1.8453,1.8489,1.847,1.8425,1.8449,1.8409,1.8401,1.8393,1.8334,1.8326,1.8357,1.8338,1.8305,1.8366,1.8312,1.8318,1.8378,1.8393,1.8406,1.841,1.8228,0,0,0,0,0,1.8566,1.8572,1.8524,1.856,1.8552,1.8503,1.8502,1.8466,1.8445,1.8437,1.8407,1.8389,1.8388,1.839,1.8387,1.8432,1.8422,1.8457,1.847,1.848,1.8487,1.8508,1.8523,1.8367,1.8367,1.8366,0,0,1.8619,1.8589,1.8597,1.8579,1.856,1.8568,1.8497,1.8509,1.8514,1.8439,1.8458,1.8436,1.8411,1.8446,1.8459,1.8431,1.8527,1.8488,1.8497,1.8498,1.8516,1.8531,1.8544,1.8371,1.837,1.8369,0,0,1.8719,1.8698,1.8725,1.8708,1.868,1.8647,1.8654,1.8614,1.8596,1.8615,1.8558,1.8564,1.8566,1.855,1.8542,1.8637,1.8594,1.8637,1.8704,1.8726,1.8738,1.8749,1.8782,1.8794,1.8644,1.8644,1.8644,0,1.8789,1.8798,1.8745,1.876,1.8753,1.8685,1.8712,1.8698,1.8672,1.8669,1.8637,1.8637,1.8615,1.8644,1.8667,1.8664,1.8669,1.8641,1.874,1.8751,1.876,1.879,1.8803,1.865,1.8649,1.8648,1.8648,0,1.8885,1.8892,1.8918,1.8893,1.8889,1.8911,1.8861,1.8864,1.8828,1.8798,1.8818,1.879,1.878,1.8784,1.875,1.8808,1.8791,1.8751,1.8695,1.8781,1.8809,1.882,1.8657,1.8655,1.8654,1.8653,0,0,1.9045,1.899,1.9,1.8987,1.8952,1.8956,1.8975,1.8964,1.8968,1.8952,1.8965,1.8968,1.893,1.8921,1.8885,1.8904,1.8979,1.8861,1.8859,1.8883,1.9041,1.9071,1.9086,1.8951,1.8953,1.8954,1.9043,0,1.9137,1.9164,1.9117,1.9155,1.9161,1.9096,1.9112,1.9092,1.9065,1.9066,1.9035,1.9038,1.8988,1.8982,1.8998,1.8967,1.901,1.896,1.8963,1.8963,1.897,1.91,1.9132,1.9217,1.9053,1.9055,1.9057,0,1.9249,1.9237,1.9276,1.9237,1.9238,1.9253,1.9239,1.9241,1.9217,1.9196,1.9186,1.9143,1.9158,1.9104,1.9124,1.9091,1.9089,1.9074,1.9076,1.9074,1.9015,1.9102,1.9243,1.9256,1.9073,1.9072,1.9071,0,1.9361,1.9355,1.9377,1.9369,1.9324,1.9336,1.9319,1.9292,1.9288,1.9276,1.9273,1.9264,1.9259,1.9253,1.9208,1.9173,1.9233,1.9176,1.9216,1.9217,1.9231,1.9231,1.9374,1.9231,1.9231,1.9231,1.923,0,1.9468,1.9495,1.9427,1.9441,1.9468,1.9414,1.9442,1.9418,1.9395,1.9403,1.9346,1.9355,1.9295,1.9298,1.9263,1.9284,1.9283,1.9266,1.9256,1.9271,1.9273,1.9268,1.9261,1.9234,1.9233,1.9233,1.9232,0,1.9598,1.9554,1.9574,1.953,1.9519,1.9542,1.9504,1.9515,1.9484,1.9494,1.9494,1.9445,1.9445,1.9399,1.939,1.9366,1.9403,1.9383,1.9411,1.9404,1.9447,1.9443,1.9592,1.9609,1.9456,1.9457,1.9459,0,1.967,1.9688,1.9646,1.9647,1.9632,1.9634,1.963,1.9577,1.9575,1.9549,1.9563,1.9558,1.9551,1.9554,1.9517,1.951,1.9489,1.9541,1.9487,1.9501,1.9489,1.9488,1.949,1.9553,1.9555,1.9556,1.9558,0,1.9801,1.9778,1.9774,1.9762,1.9759,1.9747,1.9732,1.9736,1.9678,1.9679,1.9678,1.9672,1.9662,1.9658,1.9644,1.9625,1.9582,1.9575,1.9584,1.9599,1.9614,1.9606,1.9441,1.9572,1.957,1.9569,1.9569,1.9568,1.9903,1.9916,1.9888,1.9886,1.9869,1.9856,1.9864,1.9833,1.9831,1.9818,1.9787,1.9791,1.9766,1.9742,1.9727,1.9729,1.9703,1.9716,1.9719,1.9723,1.9731,1.9614,1.9727,1.9726,1.9726,1.9725,1.9725,0,2.0031,2.001,2.0008,1.9988,1.9986,1.9945,1.9926,1.9927,1.9931,1.9911,1.9905,1.9903,1.9899,1.9862,1.9853,1.9862,1.9842,1.9862,1.986,1.9857,1.9755,1.9748,1.9878,1.9878,1.9878,1.9878,1.9878,1.9878,2.0097,2.0117,2.0091,2.0102,2.008,2.0083,2.0076,2.0063,2.0047,2.0048,2.0043,2.0019,1.9992,1.9981,1.9975,1.9964,1.9964,1.999,1.9973,1.9879,1.9864,1.985,1.9843,1.999,1.999,2.0073,2.0074,2.0075]}]]